Time,TemperatureF,DewpointF,PressureIn,WindDirection,WindDirectionDegrees,WindSpeedMPH,WindSpeedGustMPH,Humidity,HourlyPrecipIn,Conditions,Clouds,dailyrainin,SolarRadiationWatts/m^2,SoftwareType,DateUTC
2013-03-10 00:02:00,19.0,18.0,-100.00,NNW,342,1.0,2.0,95,0.00,,,0.00,0.000000,,2013-03-10 07:02:00,
2013-03-10 00:11:00,19.0,18.0,-100.00,NNW,342,1.0,2.0,95,0.00,,,0.00,0.000000,,2013-03-10 07:11:00,
2013-03-10 00:21:00,19.0,18.0,-100.00,NNW,342,1.0,2.0,95,0.00,,,0.00,0.000000,,2013-03-10 07:21:00,
2013-03-10 00:42:00,19.0,19.0,-100.00,NNW,343,2.0,2.0,98,0.00,,,-99.99,0.000000,,2013-03-10 07:42:00,
2013-03-10 00:52:00,19.0,19.0,-100.00,NNW,343,2.0,2.0,98,0.00,,,-99.99,0.000000,,2013-03-10 07:52:00,
2013-03-10 01:01:00,19.0,19.0,-100.00,NNW,343,2.0,2.0,98,0.00,,,-99.99,0.000000,,2013-03-10 08:01:00,
2013-03-10 01:11:00,19.0,19.0,-100.00,NNW,343,2.0,2.0,98,0.00,,,-99.99,0.000000,,2013-03-10 08:11:00,
2013-03-10 01:21:00,19.0,19.0,-100.00,NNW,343,2.0,2.0,98,0.00,,,-99.99,0.000000,,2013-03-10 08:21:00,
2013-03-10 01:52:00,17.0,17.0,-100.00,WNW,289,2.0,3.0,99,0.00,,,0.00,0.000000,,2013-03-10 08:52:00,
2013-03-10 03:01:00,17.0,17.0,-100.00,WNW,289,2.0,3.0,99,0.00,,,0.00,0.000000,,2013-03-10 09:01:00,
2013-03-10 03:11:00,17.0,17.0,-100.00,WNW,289,2.0,3.0,99,0.00,,,0.00,0.000000,,2013-03-10 09:11:00,
2013-03-10 03:21:00,17.0,17.0,-100.00,WNW,289,2.0,3.0,99,0.00,,,0.00,0.000000,,2013-03-10 09:21:00,
2013-03-10 03:52:00,13.0,11.0,-100.00,WSW,254,3.0,5.0,92,0.00,,,0.00,0.000000,,2013-03-10 09:52:00,
2013-03-10 04:01:00,13.0,11.0,-100.00,WSW,254,3.0,5.0,92,0.00,,,0.00,0.000000,,2013-03-10 10:01:00,
2013-03-10 04:11:00,13.0,11.0,-100.00,WSW,254,3.0,5.0,92,0.00,,,0.00,0.000000,,2013-03-10 10:11:00,
2013-03-10 04:21:00,13.0,11.0,-100.00,WSW,254,3.0,5.0,92,0.00,,,0.00,0.000000,,2013-03-10 10:21:00,
2013-03-10 04:52:00,12.0,8.0,-100.00,West,268,3.0,5.0,85,0.00,,,0.00,0.000000,,2013-03-10 10:52:00,
2013-03-10 05:01:00,12.0,8.0,-100.00,West,268,3.0,5.0,85,0.00,,,0.00,0.000000,,2013-03-10 11:01:00,
2013-03-10 05:12:00,12.0,8.0,-100.00,West,268,3.0,5.0,85,0.00,,,0.00,0.000000,,2013-03-10 11:12:00,
2013-03-10 05:21:00,12.0,8.0,-100.00,West,268,3.0,5.0,85,0.00,,,0.00,0.000000,,2013-03-10 11:21:00,
2013-03-10 07:52:00,9.0,5.0,-100.00,WSW,253,2.0,6.0,84,-99.99,,,0.00,0.000000,,2013-03-10 13:52:00,
2013-03-10 08:01:00,9.0,5.0,-100.00,WSW,253,2.0,6.0,84,-99.99,,,0.00,0.000000,,2013-03-10 14:01:00,
2013-03-10 08:11:00,9.0,5.0,-100.00,WSW,253,2.0,6.0,84,-99.99,,,0.00,0.000000,,2013-03-10 14:11:00,
2013-03-10 08:21:00,9.0,5.0,-100.00,WSW,253,2.0,6.0,84,-99.99,,,0.00,0.000000,,2013-03-10 14:21:00,
2013-03-10 08:52:00,12.0,6.0,-100.00,WNW,291,2.0,4.0,77,0.00,,,0.00,76.000000,,2013-03-10 14:52:00,
2013-03-10 09:01:00,12.0,6.0,-100.00,WNW,291,2.0,4.0,77,0.00,,,0.00,76.000000,,2013-03-10 15:01:00,
2013-03-10 09:11:00,12.0,6.0,-100.00,WNW,291,2.0,4.0,77,0.00,,,0.00,76.000000,,2013-03-10 15:11:00,
2013-03-10 09:21:00,12.0,6.0,-100.00,WNW,291,2.0,4.0,77,0.00,,,0.00,76.000000,,2013-03-10 15:21:00,
2013-03-10 09:52:00,15.0,6.0,-100.00,NNW,330,2.0,4.0,66,0.00,,,0.00,317.000000,,2013-03-10 15:52:00,
2013-03-10 10:01:00,15.0,6.0,-100.00,NNW,330,2.0,4.0,66,0.00,,,0.00,317.000000,,2013-03-10 16:01:00,
2013-03-10 10:12:00,15.0,6.0,-100.00,NNW,330,2.0,4.0,66,0.00,,,0.00,317.000000,,2013-03-10 16:12:00,
2013-03-10 10:21:00,15.0,6.0,-100.00,NNW,330,2.0,4.0,66,0.00,,,0.00,317.000000,,2013-03-10 16:21:00,
2013-03-10 10:52:00,21.0,8.0,-100.00,WNW,302,2.0,3.0,56,0.00,,,0.00,556.000000,,2013-03-10 16:52:00,
2013-03-10 11:01:00,21.0,8.0,-100.00,WNW,302,2.0,3.0,56,0.00,,,0.00,556.000000,,2013-03-10 17:01:00,
2013-03-10 11:11:00,21.0,8.0,-100.00,WNW,302,2.0,3.0,56,0.00,,,0.00,556.000000,,2013-03-10 17:11:00,
2013-03-10 11:21:00,21.0,8.0,-100.00,WNW,302,2.0,3.0,56,0.00,,,0.00,556.000000,,2013-03-10 17:21:00,
2013-03-10 11:51:00,22.0,8.0,-100.00,NW,325,4.0,6.0,54,0.00,,,0.00,761.000000,,2013-03-10 17:51:00,
2013-03-10 12:01:00,22.0,8.0,-100.00,NW,325,4.0,6.0,54,0.00,,,0.00,761.000000,,2013-03-10 18:01:00,
2013-03-10 12:11:00,22.0,8.0,-100.00,NW,325,4.0,6.0,54,0.00,,,0.00,761.000000,,2013-03-10 18:11:00,
2013-03-10 12:21:00,22.0,8.0,-100.00,NW,325,4.0,6.0,54,0.00,,,0.00,761.000000,,2013-03-10 18:21:00,
2013-03-10 12:42:00,23.0,8.0,-100.00,NW,326,5.0,8.0,53,0.00,,,0.00,905.000000,,2013-03-10 18:42:00,
2013-03-10 12:52:00,23.0,8.0,-100.00,NW,326,5.0,8.0,53,0.00,,,0.00,905.000000,,2013-03-10 18:52:00,
2013-03-10 13:01:00,23.0,8.0,-100.00,NW,326,5.0,8.0,53,0.00,,,0.00,905.000000,,2013-03-10 19:01:00,
2013-03-10 13:11:00,23.0,8.0,-100.00,NW,326,5.0,8.0,53,0.00,,,0.00,905.000000,,2013-03-10 19:11:00,
2013-03-10 13:21:00,23.0,8.0,-100.00,NW,326,5.0,8.0,53,0.00,,,0.00,905.000000,,2013-03-10 19:21:00,
2013-03-10 13:22:00,26.0,8.0,-100.00,NNW,329,5.0,8.0,45,0.00,,,0.00,979.000000,,2013-03-10 19:22:00,
2013-03-10 13:42:00,26.0,8.0,-100.00,NNW,329,5.0,8.0,45,0.00,,,0.00,979.000000,,2013-03-10 19:42:00,
2013-03-10 13:53:00,26.0,8.0,-100.00,NNW,329,5.0,8.0,45,0.00,,,0.00,979.000000,,2013-03-10 19:53:00,
2013-03-10 14:02:00,26.0,8.0,-100.00,NNW,329,5.0,8.0,45,0.00,,,0.00,979.000000,,2013-03-10 20:02:00,
2013-03-10 14:12:00,26.0,8.0,-100.00,NNW,329,5.0,8.0,45,0.00,,,0.00,979.000000,,2013-03-10 20:12:00,
2013-03-10 14:22:00,29.0,11.0,-100.00,NW,318,4.0,8.0,47,0.00,,,0.00,975.000000,,2013-03-10 20:22:00,
2013-03-10 14:53:00,29.0,11.0,-100.00,NW,318,4.0,8.0,47,0.00,,,0.00,975.000000,,2013-03-10 20:53:00,
2013-03-10 15:02:00,29.0,11.0,-100.00,NW,318,4.0,8.0,47,0.00,,,0.00,975.000000,,2013-03-10 21:02:00,
2013-03-10 15:12:00,29.0,11.0,-100.00,NW,318,4.0,8.0,47,0.00,,,0.00,975.000000,,2013-03-10 21:12:00,
2013-03-10 15:22:00,29.0,12.0,-100.00,NW,318,5.0,8.0,49,0.00,,,0.00,898.000000,,2013-03-10 21:22:00,
2013-03-10 15:43:00,29.0,12.0,-100.00,NW,318,5.0,8.0,49,0.00,,,0.00,898.000000,,2013-03-10 21:43:00,
2013-03-10 15:53:00,29.0,12.0,-100.00,NW,318,5.0,8.0,49,0.00,,,0.00,898.000000,,2013-03-10 21:53:00,
2013-03-10 16:02:00,29.0,12.0,-100.00,NW,318,5.0,8.0,49,0.00,,,0.00,898.000000,,2013-03-10 22:02:00,
2013-03-10 16:12:00,29.0,12.0,-100.00,NW,318,5.0,8.0,49,0.00,,,0.00,898.000000,,2013-03-10 22:12:00,
2013-03-10 16:22:00,30.0,14.0,-100.00,WNW,293,4.0,7.0,50,0.00,,,0.00,750.000000,,2013-03-10 22:22:00,
2013-03-10 16:43:00,30.0,14.0,-100.00,WNW,293,4.0,7.0,50,0.00,,,0.00,750.000000,,2013-03-10 22:43:00,
2013-03-10 16:53:00,30.0,14.0,-100.00,WNW,293,4.0,7.0,50,0.00,,,0.00,750.000000,,2013-03-10 22:53:00,
2013-03-10 17:03:00,30.0,14.0,-100.00,WNW,293,4.0,7.0,50,0.00,,,0.00,750.000000,,2013-03-10 23:03:00,
2013-03-10 17:12:00,30.0,14.0,-100.00,WNW,293,4.0,7.0,50,0.00,,,0.00,750.000000,,2013-03-10 23:12:00,
2013-03-10 17:22:00,28.0,14.0,-100.00,West,280,5.0,9.0,54,0.00,,,0.00,544.000000,,2013-03-10 23:22:00,
2013-03-10 17:43:00,28.0,14.0,-100.00,West,280,5.0,9.0,54,0.00,,,0.00,544.000000,,2013-03-10 23:43:00,
2013-03-10 17:52:00,28.0,14.0,-100.00,West,280,5.0,9.0,54,0.00,,,0.00,544.000000,,2013-03-10 23:52:00,
2013-03-10 18:02:00,28.0,14.0,-100.00,West,280,5.0,9.0,54,0.00,,,0.00,544.000000,,2013-03-11 00:02:00,
2013-03-10 18:12:00,28.0,14.0,-100.00,West,280,5.0,9.0,54,0.00,,,0.00,544.000000,,2013-03-11 00:12:00,
2013-03-10 18:22:00,27.0,14.0,-100.00,West,280,5.0,10.0,57,0.00,,,0.00,301.000000,,2013-03-11 00:22:00,
2013-03-10 18:43:00,27.0,14.0,-100.00,West,280,5.0,10.0,57,0.00,,,0.00,301.000000,,2013-03-11 00:43:00,
2013-03-10 18:53:00,27.0,14.0,-100.00,West,280,5.0,10.0,57,0.00,,,0.00,301.000000,,2013-03-11 00:53:00,
2013-03-10 19:02:00,27.0,14.0,-100.00,West,280,5.0,10.0,57,0.00,,,0.00,301.000000,,2013-03-11 01:02:00,
2013-03-10 19:13:00,27.0,14.0,-100.00,West,280,5.0,10.0,57,0.00,,,0.00,301.000000,,2013-03-11 01:13:00,
2013-03-10 19:22:00,23.0,13.0,-100.00,West,259,6.0,9.0,65,0.00,,,0.00,60.000000,,2013-03-11 01:22:00,
2013-03-10 19:43:00,23.0,13.0,-100.00,West,259,6.0,9.0,65,0.00,,,0.00,60.000000,,2013-03-11 01:43:00,
2013-03-10 19:53:00,23.0,13.0,-100.00,West,259,6.0,9.0,65,0.00,,,0.00,60.000000,,2013-03-11 01:53:00,
2013-03-10 20:02:00,23.0,13.0,-100.00,West,259,6.0,9.0,65,0.00,,,0.00,60.000000,,2013-03-11 02:02:00,
2013-03-10 20:12:00,23.0,13.0,-100.00,West,259,6.0,9.0,65,0.00,,,0.00,60.000000,,2013-03-11 02:12:00,
2013-03-10 20:22:00,20.0,13.0,-100.00,WSW,241,2.0,7.0,74,0.00,,,0.00,0.000000,,2013-03-11 02:22:00,
2013-03-10 20:42:00,20.0,13.0,-100.00,WSW,241,2.0,7.0,74,0.00,,,0.00,0.000000,,2013-03-11 02:42:00,
2013-03-10 20:53:00,20.0,13.0,-100.00,WSW,241,2.0,7.0,74,0.00,,,0.00,0.000000,,2013-03-11 02:53:00,
2013-03-10 21:02:00,20.0,13.0,-100.00,WSW,241,2.0,7.0,74,0.00,,,0.00,0.000000,,2013-03-11 03:02:00,
2013-03-10 21:12:00,20.0,13.0,-100.00,WSW,241,2.0,7.0,74,0.00,,,0.00,0.000000,,2013-03-11 03:12:00,
2013-03-10 21:22:00,19.0,13.0,-100.00,NW,314,2.0,4.0,77,0.00,,,0.00,0.000000,,2013-03-11 03:22:00,
2013-03-10 21:43:00,19.0,13.0,-100.00,NW,314,2.0,4.0,77,0.00,,,0.00,0.000000,,2013-03-11 03:43:00,
2013-03-10 21:53:00,19.0,13.0,-100.00,NW,314,2.0,4.0,77,0.00,,,0.00,0.000000,,2013-03-11 03:53:00,
2013-03-10 22:02:00,19.0,13.0,-100.00,NW,314,2.0,4.0,77,0.00,,,0.00,0.000000,,2013-03-11 04:02:00,
2013-03-10 22:12:00,19.0,13.0,-100.00,NW,314,2.0,4.0,77,0.00,,,0.00,0.000000,,2013-03-11 04:12:00,
2013-03-10 22:22:00,18.0,13.0,-100.00,NNW,343,0.0,2.0,80,0.00,,,0.00,0.000000,,2013-03-11 04:22:00,
2013-03-10 22:43:00,18.0,13.0,-100.00,NNW,343,0.0,2.0,80,0.00,,,0.00,0.000000,,2013-03-11 04:43:00,
2013-03-10 22:53:00,18.0,13.0,-100.00,NNW,343,0.0,2.0,80,0.00,,,0.00,0.000000,,2013-03-11 04:53:00,
2013-03-10 23:03:00,18.0,13.0,-100.00,NNW,343,0.0,2.0,80,0.00,,,0.00,0.000000,,2013-03-11 05:03:00,
2013-03-10 23:12:00,18.0,13.0,-100.00,NNW,343,0.0,2.0,80,0.00,,,0.00,0.000000,,2013-03-11 05:12:00,
2013-03-10 23:22:00,16.0,13.0,-100.00,SSW,193,2.0,3.0,86,0.00,,,-99.99,0.000000,,2013-03-11 05:22:00,
2013-03-10 23:43:00,16.0,13.0,-100.00,SSW,193,2.0,3.0,86,0.00,,,-99.99,0.000000,,2013-03-11 05:43:00,
2013-03-10 23:52:00,16.0,13.0,-100.00,SSW,193,2.0,3.0,86,0.00,,,-99.99,0.000000,,2013-03-11 05:52:00,